TimeCDT,TemperatureF,Dew PointF,Humidity,Sea Level PressureIn,VisibilityMPH,Wind Direction,Wind SpeedMPH,Gust SpeedMPH,PrecipitationIn,Events,Conditions,WindDirDegrees,DateUTC
12:15 AM,57.2,55.4,94,29.97,3.0,SE,4.6,-,N/A,,Overcast,130,2013-10-30 05:15:00
12:35 AM,57.2,55.4,94,29.96,4.0,SE,4.6,-,N/A,,Overcast,130,2013-10-30 05:35:00
12:55 AM,57.2,55.4,94,29.96,4.0,Variable,4.6,-,N/A,,Mist,0,2013-10-30 05:55:00
1:15 AM,57.2,55.4,94,29.95,2.0,East,3.5,-,N/A,,Overcast,90,2013-10-30 06:15:00
1:35 AM,57.2,57.2,100,29.95,5.0,SE,4.6,-,N/A,,Overcast,140,2013-10-30 06:35:00
1:55 AM,57.2,57.2,100,29.95,5.0,SSE,3.5,-,N/A,,Overcast,150,2013-10-30 06:55:00
2:15 AM,57.2,57.2,100,29.94,6.0,Variable,4.6,-,N/A,,Overcast,0,2013-10-30 07:15:00
2:35 AM,57.2,57.2,100,29.94,4.0,Calm,Calm,-,N/A,,Overcast,0,2013-10-30 07:35:00
2:55 AM,57.2,57.2,100,29.94,1.2,SSE,3.5,-,N/A,,Overcast,150,2013-10-30 07:55:00
3:15 AM,57.2,57.2,100,29.94,0.8,Calm,Calm,-,N/A,,Overcast,0,2013-10-30 08:15:00
3:35 AM,57.2,57.2,100,29.94,0.5,ESE,4.6,-,N/A,Fog,Fog,120,2013-10-30 08:35:00
3:55 AM,57.2,57.2,100,29.93,0.5,ESE,3.5,-,N/A,Fog,Fog,120,2013-10-30 08:55:00
4:15 AM,55.4,55.4,100,29.93,0.2,Calm,Calm,-,N/A,Fog,Fog,0,2013-10-30 09:15:00
4:35 AM,55.4,55.4,100,29.92,0.8,Calm,Calm,-,N/A,,Overcast,0,2013-10-30 09:35:00
4:55 AM,57.2,57.2,100,29.92,1.8,Calm,Calm,-,N/A,,Overcast,0,2013-10-30 09:55:00
5:15 AM,55.4,55.4,100,29.92,1.0,Calm,Calm,-,N/A,,Overcast,0,2013-10-30 10:15:00
5:35 AM,55.4,55.4,100,29.92,0.5,SE,4.6,-,N/A,,Overcast,130,2013-10-30 10:35:00
5:55 AM,55.4,55.4,100,29.93,0.2,South,4.6,-,N/A,Fog,Fog,170,2013-10-30 10:55:00
6:15 AM,55.4,55.4,100,29.91,0.2,ENE,3.5,-,N/A,Fog,Fog,60,2013-10-30 11:15:00
6:35 AM,55.4,55.4,100,29.90,0.2,Calm,Calm,-,N/A,Fog,Fog,0,2013-10-30 11:35:00
6:55 AM,55.4,55.4,100,29.92,0.2,SW,5.8,-,N/A,Fog,Fog,220,2013-10-30 11:55:00
7:15 AM,55.4,55.4,100,29.89,0.2,East,5.8,-,N/A,Rain,Light Rain,100,2013-10-30 12:15:00
7:35 AM,57.2,57.2,100,29.89,0.5,Calm,Calm,-,N/A,Fog,Fog,0,2013-10-30 12:35:00
7:55 AM,57.2,57.2,100,29.87,0.5,SSE,6.9,-,0.01,,Overcast,150,2013-10-30 12:55:00
8:15 AM,57.2,57.2,100,29.86,0.2,Calm,Calm,-,N/A,Fog,Fog,0,2013-10-30 13:15:00
8:35 AM,57.2,57.2,100,29.84,0.2,ESE,4.6,-,N/A,Fog,Fog,120,2013-10-30 13:35:00
8:55 AM,57.2,57.2,100,29.84,2.0,Calm,Calm,-,0.04,Rain,Light Rain,0,2013-10-30 13:55:00
9:15 AM,57.2,57.2,100,29.85,2.5,North,9.2,24.2,N/A,Rain,Light Rain,350,2013-10-30 14:15:00
9:35 AM,57.2,57.2,100,29.86,5.0,North,13.8,-,N/A,,Light Drizzle,350,2013-10-30 14:35:00
9:55 AM,57.2,55.4,94,29.93,1.0,NW,10.4,-,0.28,Rain,Heavy Rain,320,2013-10-30 14:55:00
10:15 AM,55.4,55.4,100,29.91,-9999.0,North,11.5,-,N/A,Rain,Heavy Rain,10,2013-10-30 15:15:00
10:35 AM,55.4,55.4,100,29.88,2.5,NE,18.4,-,N/A,Rain,Rain,50,2013-10-30 15:35:00
10:55 AM,57.2,55.4,94,29.87,10.0,East,12.7,-,0.23,,Mostly Cloudy,80,2013-10-30 15:55:00
11:15 AM,57.2,57.2,100,29.86,10.0,ENE,9.2,-,N/A,,Mostly Cloudy,70,2013-10-30 16:15:00
11:35 AM,59.0,57.2,94,29.85,10.0,ENE,11.5,-,N/A,,Partly Cloudy,60,2013-10-30 16:35:00
11:55 AM,60.8,57.2,88,29.86,10.0,NE,10.4,-,N/A,,Mostly Cloudy,50,2013-10-30 16:55:00
12:15 PM,60.8,57.2,88,29.87,10.0,NE,5.8,13.8,N/A,,Overcast,50,2013-10-30 17:15:00
12:35 PM,60.8,57.2,88,29.86,10.0,ENE,9.2,-,N/A,,Overcast,60,2013-10-30 17:35:00
12:55 PM,60.8,57.2,88,29.84,10.0,ENE,9.2,-,N/A,,Overcast,60,2013-10-30 17:55:00
1:15 PM,60.8,59.0,94,29.83,10.0,ENE,6.9,-,N/A,,Overcast,70,2013-10-30 18:15:00
1:35 PM,62.6,59.0,88,29.80,10.0,ESE,9.2,-,N/A,,Mostly Cloudy,110,2013-10-30 18:35:00
1:55 PM,62.6,59.0,88,29.79,10.0,East,8.1,-,N/A,,Mostly Cloudy,80,2013-10-30 18:55:00
2:15 PM,64.4,59.0,83,29.78,10.0,East,6.9,-,N/A,,Overcast,100,2013-10-30 19:15:00
2:35 PM,64.4,59.0,83,29.78,10.0,ESE,4.6,-,N/A,,Overcast,110,2013-10-30 19:35:00
2:55 PM,62.6,59.0,88,29.78,10.0,SE,6.9,13.8,N/A,,Overcast,140,2013-10-30 19:55:00
3:15 PM,62.6,59.0,88,29.77,10.0,SE,9.2,-,N/A,,Overcast,130,2013-10-30 20:15:00
3:35 PM,62.6,59.0,88,29.76,10.0,SE,9.2,-,N/A,,Overcast,140,2013-10-30 20:35:00
3:55 PM,62.6,59.0,88,29.75,10.0,SE,5.8,-,N/A,,Overcast,130,2013-10-30 20:55:00
4:15 PM,62.6,59.0,88,29.75,10.0,SE,4.6,-,N/A,,Overcast,140,2013-10-30 21:15:00
4:35 PM,62.6,59.0,88,29.75,10.0,SE,3.5,-,N/A,,Overcast,130,2013-10-30 21:35:00
4:55 PM,62.6,59.0,88,29.75,10.0,Calm,Calm,-,N/A,,Overcast,0,2013-10-30 21:55:00
5:15 PM,60.8,59.0,94,29.75,10.0,Variable,3.5,-,N/A,,Overcast,0,2013-10-30 22:15:00
5:35 PM,60.8,59.0,94,29.74,9.0,Calm,Calm,-,N/A,,Overcast,0,2013-10-30 22:35:00
5:55 PM,60.8,59.0,94,29.74,7.0,Calm,Calm,-,N/A,,Overcast,0,2013-10-30 22:55:00
6:15 PM,60.8,59.0,94,29.74,5.0,Calm,Calm,-,N/A,,Overcast,0,2013-10-30 23:15:00
7:55 PM,50.0,48.2,94,29.75,2.5,NNW,9.2,-,N/A,,Light Drizzle,330,2013-10-31 00:55:00
8:15 PM,48.2,48.2,100,29.75,3.0,NNW,8.1,-,N/A,,Overcast,330,2013-10-31 01:15:00
8:35 PM,48.2,48.2,100,29.75,3.0,NNW,9.2,-,N/A,,Overcast,340,2013-10-31 01:35:00
8:55 PM,48.2,48.2,100,29.74,3.0,NNW,9.2,-,N/A,,Overcast,330,2013-10-31 01:55:00
9:15 PM,48.2,48.2,100,29.74,2.5,Variable,6.9,15.0,N/A,,Overcast,0,2013-10-31 02:15:00
9:35 PM,48.2,48.2,100,29.75,3.0,NNW,8.1,16.1,N/A,,Overcast,330,2013-10-31 02:35:00
9:55 PM,48.2,46.4,93,29.75,9.0,NNW,9.2,-,N/A,,Overcast,330,2013-10-31 02:55:00
10:15 PM,48.2,46.4,93,29.76,7.0,NW,11.5,-,N/A,,Overcast,310,2013-10-31 03:15:00
10:35 PM,46.4,46.4,100,29.77,5.0,NW,8.1,-,N/A,,Overcast,310,2013-10-31 03:35:00
10:55 PM,46.4,44.6,93,29.76,3.0,NW,10.4,-,N/A,,Overcast,320,2013-10-31 03:55:00
11:15 PM,46.4,44.6,93,29.75,4.0,NNW,11.5,-,N/A,,Overcast,330,2013-10-31 04:15:00
11:35 PM,46.4,44.6,93,29.75,6.0,NW,10.4,-,N/A,,Overcast,320,2013-10-31 04:35:00